Regional Weather Roundup
Issued by NWS

Home | Current Version | Previous Version | Graphics & Text | Print | Product List | Glossary On
Versions: 1 2 3 4 5 6 7 8 9 10 11 12 13 14 15 16 17 18 19 20 21 22 23 24 25 26 27 28 29 30 31 32 33 34 35 36 37 38 39 40 41 42 43 44 45 46 47 48 49 50
000
ASUS43 KMPX 261910
RWRMN
WEATHER ROUNDUP FOR MINNESOTA
NATIONAL WEATHER SERVICE TWIN CITIES/CHANHASSEN MN
200 PM CDT TUE MAY 26 2015


NOTE: "FAIR" INDICATES FEW OR NO CLOUDS BELOW 12,000 FEET WITH NO
SIGNIFICANT WEATHER AND/OR OBSTRUCTIONS TO VISIBILITY. N/A MEANS
CURRENT SKY AND/OR WEATHER CONDITIONS ARE NOT AVAILABLE.

MNZ060>063-068>070-262000-
   Twin Cities Metro

CITY           SKY/WX    TMP DP  RH WIND       PRES   REMARKS
TWIN CITIES    LGT RAIN  58  56  93 N7        29.77F
ST PAUL        LGT RAIN  58  57  97 NW6       29.77F
CRYSTAL        LGT RAIN  58  56  93 N9        29.77F
BLAINE         LGT RAIN  57  57 100 N8        29.79F FOG
LAKEVILLE      RAIN      57  57 100 NW8       29.76F
EDEN PRAIRIE   LGT RAIN  58  56  93 N8        29.76F FOG
SOUTH ST PAUL  LGT RAIN  59  57  93 N6        29.76F
LAKE ELMO      LGT RAIN  59  59 100 N3        29.78F
$$
MNZ001>005-007-008-013>017-022>024-027-028-262000-
   Northwest Minnesota

CITY           SKY/WX    TMP DP  RH WIND       PRES   REMARKS
BEMIDJI        PTSUNNY   71  52  51 SE3       29.82F
HALLOCK        SUNNY     81  48  32 CALM      29.76S
ROSEAU         SUNNY     79  52  38 W6        29.78S
WARROAD        MOSUNNY   79  55  44 W3        29.78F
THIEF RVR FALL MOSUNNY   75  48  38 SW12      29.79F
CROOKSTON      MOSUNNY   79  52  38 S8        29.78F
FOSSTON        MOSUNNY   73  54  49 S6        29.82F
DETROIT LAKES  PTSUNNY   70  52  52 SW6       29.84S
MOORHEAD       PTSUNNY   72  55  56 S7        29.82F
PARK RAPIDS    CLOUDY    73  50  44 CALM      29.82F
MAHNOMEN       FAIR      71  54  54 S7        29.82S
$$
MNZ006-009>011-018-025>026-262000-
   North Central Minnesota

CITY           SKY/WX    TMP DP  RH WIND       PRES   REMARKS
BAUDETTE       MOSUNNY   75  50  41 S8        29.79F
FLAG ISLAND    SUNNY     66  52  59 SE9       29.77F
INTL FALLS     MOSUNNY   73  51  46 S8        29.81F
WASKISH        MOSUNNY   70  55  60 W6        29.82S
BIG FORK       PTSUNNY   73  54  49 SE3       29.82F
LONGVILLE      CLOUDY    72  52  49 E3        29.82F
GRAND RAPIDS   PTSUNNY   70  50  49 SE8       29.83F
CRANE LAKE     CLOUDY    72  52  49 S3        29.84F
ORR            PTSUNNY   72  50  46 SE5       29.81F
COOK           PTSUNNY   70  52  52 NE7       29.83F
WALKER         FAIR      67  53  59 E5        29.83F
$$
MNZ012-019>021-037-262000-
   Northeast Minnesota

CITY           SKY/WX    TMP DP  RH WIND       PRES   REMARKS
DULUTH         CLOUDY    62  53  72 E10       29.84F
ELY            PTSUNNY   70  46  43 E7        29.83F
HIBBING        CLOUDY    70  49  47 NE7       29.83F
EVELETH        CLOUDY    72  50  46 E8        29.84F
DULUTH HARBOR  CLOUDY    54  52  94 NE5       29.85S
TWO HARBORS    CLOUDY    63  55  77 E8        29.83S
GRAND MARAIS     N/A     53  50  89 W3        29.84F
G MARAIS ARPRT PTSUNNY   63  52  67 SE7       29.86F
$$
MNZ029>031-032-039>041-046>048-054>057-064-262000-
   West Central Minnesota

CITY           SKY/WX    TMP DP  RH WIND       PRES   REMARKS
FERGUS FALLS   CLOUDY    72  54  53 NE3       29.82F
WHEATON        CLOUDY    68  54  60 CALM      29.85S
MORRIS         CLOUDY    72  54  53 NE10      29.82S
ALEXANDRIA     CLOUDY    69  52  54 NE13      29.83F
ELBOW LAKE     FAIR      70  53  53 E5        29.83S
WADENA         CLOUDY    70  54  56 NE8       29.82F
GLENWOOD       CLOUDY    66  54  63 N14       29.82F
APPLETON       CLOUDY    72  54  53 N8        29.82S
BENSON         CLOUDY    70  52  52 NE7       29.82S
ORTONVILLE     CLOUDY    70  52  52 N9        29.83S
MADISON        CLOUDY    66  55  68 N8        29.83S
WILLMAR        FAIR      63  55  77 NE8       29.83S
$$
MNZ033>034-036-042>043-049>051-058-059-262000-
   Central Minnesota

CITY           SKY/WX    TMP DP  RH WIND       PRES   REMARKS
ST CLOUD       CLOUDY    60  54  80 NE6       29.80F
SAUK CENTRE    FAIR      66  54  66 NE9       29.82S
PAYNESVILLE    CLOUDY    57  53  88 N9        29.82S
AITKIN         CLOUDY    68  54  60 NE8       29.81S
PINE RIVER     CLOUDY    70  55  60 E12       29.86F
BRAINERD       CLOUDY    67  52  58 NE15      29.82F
STAPLES        CLOUDY    70  52  52 NE5       29.82F
LONG PRAIRIE   FAIR      66  52  59 NE9       29.82F
LITTLE FALLS   CLOUDY    63  52  67 NE7       29.82F
LITCHFIELD     DRIZZLE   59  57  94 N7        29.81S
BUFFALO        DRIZZLE   57  54  89 N7        29.80F
MAPLE LAKE     LGT RAIN  58  56  93 N9        29.81F
$$
MNZ037-044-045-052-053-262000-
   East Central Minnesota

CITY           SKY/WX    TMP DP  RH WIND       PRES   REMARKS
PRINCETON      DRIZZLE   59  54  82 N8        29.81S
MORA           CLOUDY    55  50  82 NE6       29.83F
CAMBRIDGE      LGT RAIN  61  52  72 N7        29.79S
RUSH CITY      CLOUDY    58  54  85 NE7       29.81S
MOOSE LAKE     CLOUDY    61  57  88 NE8       29.81F
HINCKLEY       CLOUDY    57  54  88 NE10      29.81F
CLOQUET        CLOUDY    61  54  77 E8        29.84S
MCGREGOR       CLOUDY    66  54  63 NE9       29.83S
$$
MNZ071>073-080-081-089-090-097-098-262000-
   Southwest Minnesota

CITY           SKY/WX    TMP DP  RH WIND       PRES   REMARKS
MONTEVIDEO     CLOUDY    66  55  68 E8        29.83S
GRANITE FALLS  CLOUDY    60  54  78 NE6       29.84S
CANBY          CLOUDY    64  55  73 N8        29.85S
MARSHALL       CLOUDY    59  52  77 NE8       29.83S
REDWOOD FALLS  LGT RAIN  58  55  90 N6        29.82R FOG
OLIVIA         DRIZZLE   57  52  82 NE3       29.82R
PIPESTONE      CLOUDY    57  54  88 NE5       29.84F
WINDOM         LGT RAIN  57  55  94 NW10      29.82S
WORTHINGTON    CLOUDY    57  52  82 N12       29.83S
JACKSON        LGT RAIN  59  55  88 NW7       29.81S
TRACY          RAIN      57  56  95 N7        29.84S
SLAYTON        LGT RAIN  55  55  98 NW6       29.85S
$$
MNZ065>067-074>077-082>085-091>093-262000-
   South Central Minnesota

CITY           SKY/WX    TMP DP  RH WIND       PRES   REMARKS
MANKATO        CLOUDY    59  57  94 NW7       29.79R
NEW ULM        RAIN      57  57 100 N7        29.80S
ST JAMES       RAIN      61  59  94 NW6       29.81S
FAIRMONT       CLOUDY    59  54  82 NW6       29.79S
GLENCOE        RAIN      57  57  99 N5        29.79S
FARIBAULT      LGT RAIN  63  61  94 CALM      29.77S
OWATONNA       LGT RAIN  63  61  94 W5        29.77S
WASECA         LGT RAIN  63  59  88 NW3       29.79R
ALBERT LEA     LGT RAIN  63  61  94 W5        29.77S
$$
MNZ078>079-086>088-094>096-262000-
   Southeast Minnesota

CITY           SKY/WX    TMP DP  RH WIND       PRES   REMARKS
ROCHESTER      RAIN      62  59  90 NW13      29.76F FOG
RED WING       LGT RAIN  66  63  88 NW3       29.74S
STANTON        LGT RAIN  64  60  88 N7        29.75S
DODGE CENTER   LGT RAIN  63  61  94 NW7       29.77S
WINONA         DRIZZLE   63  61  94 NW6       29.72F
AUSTIN         RAIN      63  59  88 NW9       29.76S
PRESTON        LGT RAIN  60  58  94 NW12      29.73F
$$
ABBREVIATIONS USED IN REMARKS
   TC - TEMPERATURES IN CELSIUS
  WCI - WIND CHILL INDEX
   HX - HEAT INDEX
  VSB - VISIBILITY
$$



USA.gov is the U.S. government's official web portal to all federal, state and local government web resources and services.